Redwood City, CA (94065)

2:44 PM PDT on August 04, 2015 (GMT -0700)
Redwood Shores - Baltic Circle | | Change Station
CLOSE
Current Station
Personal Weather Station
Location: Redwood City, CA
Elevation: -10 ft
Nearby Weather Stations

Elev -10 ft 37.54 °N, 122.24 °W | Updated 6 minutes ago

Mostly Cloudy
Mostly Cloudy
71.8 °F
Feels Like 76 °F
N
3.0
Wind Variable Wind from ESE
Gusts 8.0 mph

Today
High -- | Low -- °F
--% Chance of Precip.
Yesterday
High -- | Low -- °F
Precip. -- in
6:15 AM 8:14 PM
Waning Gibbous, 74% visible
Pressure 30.02 in
Visibility 10.0 miles
Clouds Scattered Clouds 4000 ft
Mostly Cloudy 15000 ft
Heat Index 76 °F
Dew Point 57 °F
Humidity 60%
Rainfall 0.00 in
Snow Depth Not available.
UV 6 out of 12
Pollen 4.90 out of 12
Air Quality Not available.
Flu Activity Not available.
METAR KSQL 042049Z 25011KT 10SM SCT040 BKN150 22/11 A3002

More Conditions Fewer Conditions

Pressure 30.02 in
Visibility 10.0 miles
Clouds Scattered Clouds 4000 ft
Mostly Cloudy 15000 ft
Heat Index 76 °F
Dew Point 57 °F
Humidity 60%
Rainfall 0.00 in
Snow Depth Not available.
UV 6 out of 12
Pollen 4.90 out of 12
Air Quality Not available.
Flu Activity Not available.
METAR KSQL 042049Z 25011KT 10SM SCT040 BKN150 22/11 A3002

More Conditions Fewer Conditions

10-Day Weather Forecast

×

Almanac

Astronomy

Aug. 04, 2015 Rise Set
Actual Time
Civil Twilight
Nautical Twilight
Astronomical Twilight
Moon
Length of Visible Light
Length of Day
Tomorrow will be .
, % of the Moon is Illuminated

Today's Extremes

State Highs State Lows

Community

WunderPhotos

Upload Photos

1,843,992 photos uploaded!

WunderBlogs® & News

Nearby

Air Quality

  Air Quality AQ Index Pollutant
Not available.

Snow Depth

Station Depth Elevation

Earthquake Activity

City Distance Mag. Time & Date
Minimum magnitude displayed is 2.5.

Coastal Water Temperatures

Place Temperature

Stations

Nearby Weather Stations

Station Location Temp. Windchill Dew Point Humidity Wind Precip. Elev Updated Type